1500912000.41,36948,22.69,73648.3,8.11,0.51,2.43,0,*44
1500912001.67,36949,22.69,73650.5,8.11,1.33,2.17,0,*71
1500912002.9,36950,22.69,73648.3,8.11,2.65,3.19,0,*76
1500912004.12,36951,22.69,73652.5,8.11,3.25,3.79,0,*74
1500912005.33,36952,22.69,73650.0,8.15,3.41,4.07,0,*7F
1500912006.55,36953,22.69,73644.3,8.11,3.37,4.45,0,*7D
1500912007.72,36954,22.69,73646.0,8.15,2.99,4.11,0,*7A
1500912008.98,36955,22.69,73648.3,8.11,2.17,3.49,0,*73
1500912010.23,36956,22.69,73648.5,8.11,1.71,2.47,0,*7C
1500912011.45,36957,22.69,73650.8,8.15,2.01,2.01,0,*7F
1500912012.68,36958,22.69,73652.3,8.15,2.39,2.21,0,*79
1500912013.89,36959,22.69,73654.8,8.15,1.51,1.63,0,*70
1500912015.11,36960,22.69,73656.5,8.15,1.25,1.43,0,*7B
1500912016.33,36961,22.69,73650.8,8.15,0.83,0.91,0,*79
1500912017.58,36962,22.69,73652.8,8.17,0.87,0.87,0,*7B
1500912018.8,36963,22.69,73648.5,8.17,-0.65,0.25,0,*53
1500912020.0,36964,22.69,73650.3,8.15,-0.53,-0.23,0,*78
1500912021.18,36965,22.69,73648.5,8.15,-0.45,-0.33,0,*7F
1500912022.37,36966,22.69,73642.8,8.15,0.55,0.43,0,*7A
1500912023.59,36967,22.69,73640.3,8.15,1.85,1.43,0,*76
1500912024.76,36968,22.69,73646.0,8.15,2.99,2.91,0,*7B
1500912025.96,36969,22.69,73648.0,8.15,3.53,3.93,0,*7E
1500912027.17,36970,22.69,73646.3,8.17,3.25,4.41,0,*7D
1500912028.4,36971,22.69,73648.0,8.17,3.59,4.67,0,*73
1500912029.63,36972,22.69,73650.5,8.17,3.59,4.79,0,*7F
1500912030.86,36973,22.69,73652.3,8.17,2.43,4.15,0,*7E
1500912032.06,36974,22.69,73648.3,8.19,1.79,3.45,0,*7F
1500912033.32,36975,22.69,73648.3,8.17,1.93,2.89,0,*75
1500912034.53,36976,22.69,73644.5,8.17,1.79,2.61,0,*74
1500912035.79,36977,22.69,73650.0,8.17,1.93,2.39,0,*7C
1500912037.02,36978,22.69,73650.0,8.17,1.79,2.73,0,*79
1500912038.23,36979,22.69,73650.5,8.19,1.21,1.79,0,*72
1500912039.46,36980,22.69,73654.3,8.17,2.31,2.85,0,*78
1500912040.66,36981,22.69,73650.5,8.19,2.65,3.23,0,*7B
1500912041.89,36982,22.69,73650.5,8.17,3.45,3.93,0,*7E
1500912043.09,36983,22.69,73648.8,8.17,4.27,4.49,0,*7C
1500912044.3,36984,22.69,73650.3,8.17,4.53,4.85,0,*78
1500912045.51,36985,22.69,73650.3,8.15,4.27,4.71,0,*73
1500912046.74,36986,22.69,73646.3,8.17,4.53,4.75,0,*75
1500912047.95,36987,22.69,73650.5,8.15,4.85,4.93,0,*75
1500912049.15,36988,22.69,73644.3,8.17,5.07,5.33,0,*78
1500912050.36,36989,22.69,73648.0,8.17,4.85,5.11,0,*72
1500912051.56,36990,22.69,73644.8,8.17,4.41,4.85,0,*7E
1500912052.79,36991,22.69,73650.3,8.17,4.15,4.79,0,*7D
1500912053.99,36992,22.69,73650.5,8.15,3.33,4.27,0,*74
1500912055.18,36993,22.69,73650.5,8.15,2.73,3.63,0,*77
1500912056.43,36994,22.69,73650.8,8.17,2.51,3.15,0,*73
1500912057.69,36995,22.69,73652.5,8.17,2.13,2.51,0,*75
1500912058.89,36996,22.69,73654.5,8.17,1.79,1.41,0,*7B
1500912060.09,36997,22.69,73648.8,8.15,2.51,1.05,0,*71
1500912061.31,36998,22.69,73646.8,8.15,3.79,2.21,0,*70
1500912062.54,36999,22.69,73644.5,8.11,4.37,3.45,0,*7B
1500912063.74,37000,22.69,73650.8,8.15,4.05,4.27,0,*75
1500912064.94,37001,22.69,73648.0,8.15,3.07,4.27,0,*71
1500912066.17,37002,22.69,73650.5,8.15,1.97,3.67,0,*7A
1500912067.36,37003,22.69,73650.3,8.15,1.41,3.19,0,*79
1500912068.57,37004,22.69,73648.8,8.15,0.41,2.47,0,*45
1500912069.78,37005,22.69,73648.8,8.15,-1.05,0.43,0,*6E
1500912070.96,37006,22.69,73650.3,8.15,-1.21,-0.29,0,*4A
1500912072.2,37007,22.69,73648.0,8.11,-0.27,0.25,0,*59
1500912073.42,37008,22.69,73644.0,8.15,0.95,1.29,0,*4B
1500912074.64,37009,22.69,73644.8,8.15,1.97,2.39,0,*7B
1500912075.84,37010,22.69,73644.5,8.15,3.29,3.75,0,*7D
1500912077.04,37011,22.69,73640.5,8.15,3.41,4.49,0,*7A
1500912078.25,37012,22.69,73644.8,8.17,2.61,4.37,0,*71
1500912079.48,37013,22.69,73642.8,8.17,-0.49,3.15,0,*62
1500912080.66,37014,22.69,73642.0,8.15,-6.69,-2.35,0,*7D
1500912081.87,37015,22.69,73638.8,8.17,-2.35,-0.53,0,*41
1500912083.12,37016,22.69,73640.5,8.17,-0.93,0.47,0,*54
1500912084.32,37017,22.69,73640.5,8.15,-0.77,1.17,0,*69
1500912085.48,37018,22.69,73642.8,8.15,-0.07,1.75,0,*55
1500912086.7,37019,22.69,73640.3,8.15,0.79,2.21,0,*42
1500912087.92,37020,22.69,73642.0,8.15,0.55,1.37,0,*42
1500912089.13,37021,22.69,73640.5,8.15,0.63,0.55,0,*73
1500912090.32,37022,22.69,73636.0,8.15,0.43,-0.23,0,*5E
1500912091.52,37023,22.69,73638.8,8.15,1.13,1.75,0,*74
1500912092.74,37024,22.69,73642.0,8.15,-0.93,1.29,0,*6E
1500912093.93,37025,22.69,73640.3,8.15,-4.21,-1.63,0,*71
1500912095.15,37026,22.69,73642.8,8.15,-4.93,-3.71,0,*7A
1500912096.36,37027,22.69,73638.0,8.15,-6.27,-5.47,0,*75
1500912097.6,37028,22.69,73636.8,8.15,-7.73,-7.61,0,*7C
1500912098.84,37029,22.69,73638.3,8.11,-5.43,-5.27,0,*78
1500912100.08,37030,22.69,73640.5,8.11,-5.51,-5.15,0,*72
1500912101.33,37031,22.69,73644.8,8.11,-5.55,-4.73,0,*76
1500912102.56,37032,22.69,73644.8,8.11,-5.19,-3.83,0,*75
1500912103.81,37033,22.69,73648.0,8.11,-5.69,-4.53,0,*79
1500912105.04,37034,22.69,73646.8,8.11,-6.05,-4.77,0,*71
1500912106.28,37035,22.69,73648.0,8.11,-5.97,-5.19,0,*71
1500912107.52,37036,22.69,73644.5,8.11,-5.07,-4.49,0,*7F
1500912108.74,37037,22.69,73644.0,8.11,-3.95,-4.09,0,*77
1500912109.98,37038,22.69,73642.5,8.11,0.13,-2.59,0,*6B
1500912111.23,37039,22.69,73640.0,8.11,2.69,0.63,0,*43
1500912112.43,37040,22.69,73638.5,8.11,4.11,3.25,0,*75
1500912113.66,37041,22.69,73638.0,8.11,4.59,4.57,0,*7A
1500912114.87,37042,22.69,73636.3,8.11,4.89,5.11,0,*77
1500912116.14,37043,22.69,73636.0,8.11,4.71,5.01,0,*70
1500912117.34,37044,22.69,73632.8,8.11,4.81,5.15,0,*7D
1500912118.57,37045,22.69,73638.3,8.11,5.05,5.49,0,*78
1500912119.8,37046,22.69,73636.0,8.11,4.71,5.59,0,*78
1500912121.06,37047,22.63,73636.5,8.11,3.97,5.01,0,*7B
1500912122.31,37048,22.69,73646.5,8.11,2.43,3.79,0,*75
1500912123.51,37049,22.69,73644.3,8.09,1.59,3.29,0,*70
1500912124.72,37050,22.69,73646.8,8.09,1.83,3.41,0,*71
1500912125.97,37051,22.69,73648.3,8.11,1.97,3.79,0,*77
1500912127.23,37052,22.69,73650.3,8.11,1.97,3.75,0,*78
1500912128.49,37053,22.69,73650.3,8.11,1.33,3.37,0,*71
1500912129.72,37054,22.69,73646.8,8.11,0.17,1.59,0,*4B
1500912130.92,37055,22.69,73646.3,8.15,-1.51,0.21,0,*6E
1500912132.09,37056,22.69,73642.8,8.15,-0.77,-0.53,0,*70
1500912133.31,37057,22.69,73644.0,8.15,1.51,2.01,0,*71
1500912134.54,37058,22.69,73644.8,8.15,1.43,3.07,0,*7A
1500912135.73,37059,22.69,73650.3,8.15,1.41,2.73,0,*7B
1500912136.93,37060,22.69,73650.3,8.15,1.51,3.29,0,*7E
1500912138.14,37061,22.69,73648.3,8.15,0.17,3.23,0,*46
1500912139.33,37062,22.69,73648.3,8.15,-0.29,1.97,0,*68
1500912140.56,37063,22.69,73644.0,8.17,-4.69,-2.35,0,*7D
1500912141.77,37064,22.69,73646.8,8.17,-4.53,-2.87,0,*7A
1500912143.01,37065,22.63,73638.8,8.17,-3.63,-2.91,0,*78
1500912144.26,37066,22.63,73638.3,8.17,-0.27,-0.85,0,*7F
1500912145.47,37067,22.69,73640.3,8.17,0.75,0.97,0,*7A
1500912146.71,37068,22.69,73642.8,8.17,0.59,1.93,0,*4E
1500912147.9,37069,22.63,73642.5,8.15,-1.51,0.67,0,*63
1500912149.16,37070,22.69,73646.3,8.11,-3.47,-1.95,0,*7B
1500912150.4,37071,22.69,73646.3,8.11,-2.99,-2.11,0,*77
1500912151.63,37072,22.69,73640.0,8.15,-2.67,-2.03,0,*72
1500912152.82,37073,22.63,73642.5,8.15,-2.31,-2.15,0,*77
1500912154.08,37074,22.69,73642.5,8.11,-1.95,-1.47,0,*7D
1500912155.3,37075,22.63,73636.5,8.11,-2.31,-1.67,0,*73
1500912156.53,37076,22.69,73640.0,8.15,-2.51,-1.91,0,*7B
1500912157.8,37077,22.63,73638.8,8.11,-1.95,-2.07,0,*79
1500912159.04,37078,22.63,73638.8,8.11,-1.71,-1.47,0,*7B
1500912160.3,37079,22.63,73642.5,8.11,-2.55,-1.43,0,*7B
1500912161.54,37080,22.63,73642.0,8.15,-2.59,-1.39,0,*78
1500912162.75,37081,22.63,73638.0,8.11,-2.87,-1.67,0,*75
1500912163.94,37082,22.63,73636.8,8.15,-2.79,-2.39,0,*7B
1500912165.17,37083,22.63,73638.3,8.11,-3.59,-3.31,0,*74
1500912166.36,37084,22.69,73636.0,8.09,-4.41,-3.75,0,*74
1500912167.55,37085,22.69,73636.0,8.09,-2.87,-2.83,0,*71
1500912168.75,37086,22.63,73630.5,8.09,-0.93,-1.59,0,*41
1500912169.97,37087,22.69,73642.8,8.07,0.25,-0.65,0,*50
1500912171.2,37088,22.63,73640.8,8.09,1.13,0.59,0,*47
1500912172.43,37089,22.69,73640.3,8.09,1.63,1.21,0,*7F
1500912173.63,37090,22.69,73642.3,8.09,1.75,1.63,0,*76
1500912174.86,37091,22.63,73642.8,8.09,1.63,2.09,0,*7F
1500912176.1,37092,22.63,73644.0,8.09,1.21,2.43,0,*74
1500912177.32,37093,22.63,73640.3,8.09,0.55,1.93,0,*49
1500912178.49,37094,22.63,73646.3,8.09,-0.61,1.83,0,*65
1500912179.72,37095,22.63,73646.3,8.09,-2.63,0.79,0,*60
1500912180.92,37096,22.69,73644.8,8.09,-3.75,-1.21,0,*74
1500912182.18,37097,22.69,73642.8,8.07,-3.55,-1.91,0,*72
1500912183.41,37098,22.69,73640.5,8.07,-4.45,-2.51,0,*74
1500912184.66,37099,22.63,73636.5,8.07,-4.93,-3.51,0,*7F
1500912185.85,37100,22.63,73632.8,8.09,-4.29,-3.35,0,*73
1500912187.09,37101,22.63,73634.3,8.09,-3.63,-2.75,0,*7E
1500912188.28,37102,22.63,73636.8,8.09,-4.09,-3.39,0,*7F
1500912189.52,37103,22.63,73642.3,8.07,-2.79,-2.11,0,*7A
1500912190.73,37104,22.69,73644.3,8.07,-4.29,-2.83,0,*75
1500912191.94,37105,22.69,73646.0,8.09,-4.29,-2.75,0,*73
1500912193.14,37106,22.63,73640.3,8.09,-4.13,-2.95,0,*77
1500912194.35,37107,22.63,73640.3,8.07,-3.11,-1.79,0,*7C
1500912195.57,37108,22.63,73642.5,8.07,-2.35,-0.97,0,*45
1500912196.79,37109,22.63,73642.8,8.09,-1.99,-0.37,0,*45
1500912198.01,37110,22.63,73642.5,8.09,-2.31,-1.43,0,*7E
1500912199.24,37111,22.63,73640.0,8.07,-2.35,-1.91,0,*7A
1500912200.45,37112,22.69,73644.8,8.07,-1.25,-1.17,0,*75
1500912201.66,37113,22.63,73640.3,8.09,0.51,0.37,0,*7B
1500912202.88,37114,22.69,73640.3,8.09,0.51,0.87,0,*77
1500912204.11,37115,22.63,73640.5,8.07,0.63,1.47,0,*44
1500912205.33,37116,22.69,73642.0,8.07,-0.03,1.09,0,*56
1500912206.53,37117,22.63,73638.8,8.07,-2.15,-0.61,0,*40
1500912207.75,37118,22.63,73638.5,8.09,-1.99,-0.73,0,*45
1500912208.95,37119,22.63,73634.3,8.09,-1.63,-0.89,0,*44
1500912210.17,37120,22.63,73634.3,8.07,-0.61,-0.97,0,*7C
1500912211.37,37121,22.63,73634.0,8.09,1.25,0.97,0,*42
1500912212.59,37122,22.69,73636.3,8.09,2.25,2.05,0,*7B
1500912213.85,37123,22.69,73632.0,8.07,3.11,2.89,0,*76
1500912215.1,37124,22.63,73634.0,8.07,3.15,3.23,0,*74
1500912216.35,37125,22.63,73632.5,8.07,2.39,3.15,0,*7F
1500912217.55,37126,22.63,73632.5,8.05,2.27,2.73,0,*70
1500912218.72,37127,22.63,73638.3,8.05,2.95,2.95,0,*70
1500912219.98,37128,22.69,73642.0,8.03,3.07,3.19,0,*76
1500912221.18,37129,22.63,73640.3,8.05,2.27,3.11,0,*7A
1500912222.41,37130,22.63,73638.5,8.03,1.01,2.17,0,*74
1500912223.68,37131,22.63,73634.8,8.03,1.13,1.85,0,*7E
1500912224.93,37132,22.63,73630.0,8.03,2.25,2.69,0,*7A
1500912226.17,37133,22.63,73630.5,8.01,1.21,2.59,0,*7D
1500912227.36,37134,22.63,73628.0,8.01,0.79,1.41,0,*4C
1500912228.59,37135,22.63,73630.0,8.01,1.85,2.47,0,*7A
1500912229.79,37136,22.63,73624.8,8.01,1.47,2.31,0,*76
1500912231.0,37137,22.63,73626.3,8.01,0.75,1.71,0,*40
1500912232.25,37138,22.63,73630.5,8.01,-1.99,-1.35,0,*7C
1500912233.49,37139,22.63,73632.8,8.03,-3.67,-2.83,0,*72
1500912234.73,37140,22.63,73638.5,8.03,-2.67,-2.79,0,*78
1500912235.94,37141,22.63,73640.5,8.01,-1.21,-1.95,0,*7B
1500912237.14,37142,22.63,73640.5,8.01,0.29,-0.19,0,*59
1500912238.35,37143,22.63,73640.8,8.03,0.43,0.91,0,*7B
1500912239.6,37144,22.63,73646.0,8.03,0.95,1.63,0,*4B
1500912240.82,37145,22.63,73644.3,8.03,-0.45,1.63,0,*6A
1500912242.05,37146,22.63,73642.5,8.03,-1.29,0.79,0,*68
1500912243.28,37147,22.63,73640.8,8.03,-2.95,-0.15,0,*4A
1500912244.48,37148,22.63,73634.0,8.05,-6.27,-4.05,0,*7B
1500912245.7,37149,22.63,73624.5,8.03,-6.51,-4.99,0,*78
1500912246.91,37150,22.63,73626.8,8.03,-4.45,-4.09,0,*7E
1500912248.12,37151,22.63,73624.8,8.03,-4.05,-3.15,0,*71
1500912249.34,37152,22.63,73632.3,8.03,-6.01,-4.61,0,*70
1500912250.56,37153,22.63,73632.8,8.03,-7.23,-6.81,0,*7C
1500912251.78,37154,22.63,73638.0,7.99,-6.51,-6.35,0,*7C
1500912252.98,37155,22.63,73642.5,8.01,-7.11,-6.73,0,*74
1500912254.17,37156,22.63,73640.3,8.01,-6.55,-6.05,0,*77
1500912255.38,37157,22.63,73636.3,8.01,-6.35,-5.77,0,*76
1500912256.66,37158,22.63,73632.5,7.99,-5.69,-5.23,0,*7C
1500912257.87,37159,22.63,73636.3,8.01,-5.97,-5.19,0,*7B
1500912259.14,37160,22.63,73638.3,7.99,-5.69,-5.15,0,*72
1500912260.38,37161,22.63,73636.0,7.99,-5.97,-5.19,0,*7E
1500912261.6,37162,22.63,73640.3,8.01,-5.77,-5.39,0,*7F
1500912262.84,37163,22.63,73640.0,7.99,-5.81,-5.39,0,*79
1500912264.07,37164,22.63,73642.5,7.99,-5.43,-4.77,0,*7B
1500912265.32,37165,22.63,73640.5,8.01,-5.31,-4.89,0,*70
1500912266.56,37166,22.63,73640.0,7.99,-4.01,-2.91,0,*70
1500912267.81,37167,22.63,73642.5,7.99,-4.81,-3.71,0,*76
1500912269.06,37168,22.63,73644.3,7.99,-6.35,-5.61,0,*73
1500912270.3,37169,22.63,73646.3,7.99,-6.93,-6.73,0,*7E
1500912271.51,37170,22.63,73644.3,7.97,-7.01,-6.85,0,*7B
1500912272.73,37171,22.63,73644.0,7.97,-7.31,-7.19,0,*7D
1500912273.97,37172,22.63,73646.0,7.97,-7.43,-7.31,0,*71
1500912275.21,37173,22.63,73650.5,7.95,-7.87,-7.57,0,*7A
1500912276.43,37174,22.63,73644.3,7.95,-7.23,-7.19,0,*79
1500912277.71,37175,22.63,73644.3,7.95,-7.73,-7.43,0,*72
1500912278.95,37176,22.63,73644.0,7.89,-7.77,-7.65,0,*7C
1500912280.16,37177,22.63,73646.8,7.93,-8.29,-8.03,0,*7D
1500912281.38,37178,22.63,73650.3,7.89,-7.23,-6.93,0,*7B
1500912282.57,37179,22.63,73652.0,7.89,-7.15,-6.69,0,*7A
1500912283.81,37180,22.63,73654.5,7.87,-7.39,-6.89,0,*72
1500912285.08,37181,22.63,73658.0,7.87,-7.27,-6.97,0,*73
1500912286.27,37182,22.63,73654.0,7.85,-7.19,-6.85,0,*7C
1500912287.49,37183,22.63,73648.3,7.85,-6.97,-6.73,0,*73
1500912288.71,37184,22.63,73648.5,7.85,-6.59,-6.23,0,*73
1500912289.97,37185,22.63,73644.3,7.83,-7.43,-6.93,0,*75
1500912291.19,37186,22.63,73646.0,7.81,-7.23,-6.93,0,*72
1500912292.4,37187,22.63,73644.8,7.81,-7.11,-6.81,0,*71
1500912293.59,37188,22.63,73646.8,7.81,-7.23,-6.89,0,*77
1500912294.81,37189,22.63,73652.0,7.81,-7.05,-6.81,0,*7A
1500912296.01,37190,22.63,73658.0,7.81,-7.11,-6.81,0,*77
1500912297.21,37191,22.63,73658.8,7.81,-7.49,-7.23,0,*72
1500912298.45,37192,22.63,73658.8,7.81,-7.69,-7.43,0,*75
1500912299.65,37193,22.63,73654.0,7.81,-7.11,-6.55,0,*7D
1500912300.85,37194,22.63,73648.0,7.81,-6.81,-6.01,0,*73
1500912302.06,37195,22.63,73648.8,7.81,-6.55,-5.73,0,*7D
1500912303.28,37196,22.63,73650.5,7.81,-6.77,-6.27,0,*7C
1500912304.47,37197,22.63,73650.8,7.79,-7.11,-6.69,0,*71
1500912305.71,37198,22.63,73652.8,7.79,-5.77,-5.27,0,*75
1500912306.97,37199,22.63,73644.0,7.77,-5.73,-4.69,0,*75
1500912308.22,37200,22.63,73650.5,7.81,-7.01,-6.19,0,*7D
1500912309.46,37201,22.63,73648.0,7.83,-8.37,-7.99,0,*7D
1500912310.7,37202,22.63,73650.5,7.79,-7.91,-7.73,0,*7C
1500912311.88,37203,22.63,73648.0,7.79,-6.69,-6.59,0,*72
1500912313.11,37204,22.63,73646.8,7.77,-7.39,-6.73,0,*77
1500912314.32,37205,22.63,73648.0,7.77,-8.21,-7.53,0,*73
1500912315.59,37206,22.63,73646.5,7.77,-7.65,-7.39,0,*73
1500912316.8,37207,22.63,73646.0,7.77,-6.59,-6.73,0,*73
1500912317.99,37208,22.63,73646.0,7.75,-6.77,-6.47,0,*75
1500912319.19,37209,22.63,73650.3,7.75,-6.51,-6.51,0,*77
1500912320.4,37210,22.63,73646.3,7.75,-5.97,-5.81,0,*78
1500912321.63,37211,22.63,73650.5,7.75,-7.27,-6.97,0,*74
1500912322.84,37212,22.63,73646.8,7.75,-7.01,-6.89,0,*7C
1500912324.04,37213,22.63,73642.5,7.75,-7.11,-7.11,0,*7C
1500912325.27,37214,22.63,73646.0,7.73,-6.81,-7.05,0,*70
1500912326.46,37215,22.63,73650.3,7.71,-6.51,-6.55,0,*7A
1500912327.69,37216,22.63,73650.5,7.73,-7.01,-6.89,0,*7E
1500912328.93,37217,22.63,73646.8,7.71,-7.01,-6.63,0,*79
1500912330.12,37218,22.63,73644.5,7.71,-6.77,-6.13,0,*71
1500912331.33,37219,22.63,73648.3,7.71,-5.61,-5.35,0,*73
1500912332.51,37220,22.63,73644.0,7.71,-7.15,-6.77,0,*7D
1500912333.75,37221,22.63,73644.3,7.71,-7.35,-7.31,0,*7D
1500912334.93,37222,22.63,73640.0,7.71,-6.39,-6.39,0,*7A
1500912336.12,37223,22.63,73640.8,7.71,-7.19,-6.77,0,*72
1500912337.33,37224,22.63,73632.3,7.71,-7.95,-7.49,0,*7D
1500912338.54,37225,22.63,73628.5,7.67,-8.21,-7.99,0,*76
1500912339.73,37226,22.63,73628.5,7.67,-8.21,-8.21,0,*79
1500912340.97,37227,22.63,73632.0,7.67,-7.99,-8.07,0,*70
1500912342.15,37228,22.63,73626.8,7.63,-8.37,-8.25,0,*70
1500912343.37,37229,22.63,73630.8,7.65,-8.45,-8.25,0,*72
1500912344.6,37230,22.63,73632.5,7.63,-8.07,-8.03,0,*7E
1500912345.86,37231,22.63,73630.8,7.65,-8.07,-7.95,0,*79
1500912347.1,37232,22.63,73622.8,7.63,-7.95,-7.77,0,*74
1500912348.33,37233,22.63,73626.3,7.63,-7.39,-7.27,0,*76
1500912349.59,37234,22.63,73626.3,7.65,-7.39,-7.27,0,*77
1500912350.81,37235,22.63,73628.0,7.65,-7.15,-7.15,0,*79
1500912352.02,37236,22.63,73626.3,7.63,-7.31,-7.15,0,*7A
1500912353.25,37237,22.63,73624.3,7.65,-7.39,-7.15,0,*75
1500912354.51,37238,22.63,73624.8,7.65,-7.43,-7.39,0,*79
1500912355.73,37239,22.63,73624.8,7.65,-7.23,-6.89,0,*74
1500912356.96,37240,22.63,73622.3,7.65,-7.31,-7.15,0,*7D
1500912358.21,37241,22.63,73630.3,7.65,-7.43,-7.23,0,*7C
1500912359.46,37242,22.63,73630.8,7.65,-7.27,-6.97,0,*73
1500912360.68,37243,22.63,73626.5,7.63,-7.23,-6.97,0,*70
1500912361.92,37244,22.63,73628.8,7.65,-7.11,-6.97,0,*70
1500912363.18,37245,22.63,73630.5,7.65,-7.27,-6.97,0,*74
1500912364.41,37246,22.63,73634.5,7.65,-7.01,-6.89,0,*7C
1500912365.62,37247,22.63,73636.0,7.67,-7.19,-7.05,0,*73
1500912366.86,37248,22.63,73634.3,7.67,-7.05,-6.93,0,*7F
1500912368.06,37249,22.63,73636.8,7.67,-7.23,-7.05,0,*74
1500912369.28,37250,22.63,73644.3,7.67,-7.19,-6.93,0,*7B
1500912370.51,37251,22.63,73646.0,7.67,-7.39,-7.27,0,*76
1500912371.72,37252,22.63,73648.0,7.67,-7.35,-7.19,0,*74
1500912372.93,37253,22.63,73652.3,7.67,-7.49,-7.35,0,*70
1500912374.14,37254,22.63,73648.8,7.67,-7.53,-7.39,0,*70
1500912375.32,37255,22.63,73648.5,7.67,-8.17,-8.17,0,*7D
1500912376.56,37256,22.63,73640.3,7.63,-8.03,-7.77,0,*76
1500912377.82,37257,22.63,73638.5,7.65,-7.77,-7.57,0,*7F
1500912379.09,37258,22.63,73638.3,7.65,-7.57,-7.57,0,*72
1500912380.35,37259,22.63,73642.8,7.65,-7.77,-7.57,0,*71
1500912381.54,37260,22.63,73636.3,7.63,-8.25,-8.25,0,*7F
1500912382.73,37261,22.63,73642.3,7.63,-8.71,-8.59,0,*74
1500912383.91,37262,22.63,73636.3,7.63,-8.59,-8.59,0,*7D
1500912385.13,37263,22.63,73640.0,7.59,-8.11,-7.87,0,*75
1500912386.4,37264,22.63,73640.8,7.61,-7.73,-7.61,0,*7A
1500912387.68,37265,22.63,73648.3,7.61,-7.73,-7.61,0,*7B
1500912388.92,37266,22.63,73642.5,7.59,-7.35,-7.27,0,*73
1500912390.16,37267,22.63,73646.0,7.61,-7.43,-7.15,0,*79
1500912391.4,37268,22.63,73644.0,7.61,-7.19,-7.01,0,*7C
1500912392.65,37269,22.63,73646.3,7.61,-7.19,-7.01,0,*7D
1500912393.84,37270,22.63,73640.5,7.59,-6.81,-6.77,0,*7E
1500912395.1,37271,22.63,73642.3,7.61,-7.27,-6.93,0,*73
1500912396.32,37272,22.63,73644.0,7.61,-7.15,-6.89,0,*7A
1500912397.57,37273,22.63,73642.5,7.61,-7.01,-6.81,0,*76
1500912398.78,37274,22.63,73644.0,7.61,-6.69,-6.55,0,*77
1500912400.02,37275,22.63,73640.5,7.59,-7.35,-7.01,0,*75
1500912401.23,37276,22.63,73640.8,7.61,-7.49,-7.15,0,*73
1500912402.44,37277,22.63,73636.3,7.63,-7.39,-7.23,0,*72
1500912403.68,37278,22.63,73636.3,7.61,-7.69,-7.49,0,*76
1500912404.87,37279,22.63,73636.5,7.59,-8.25,-8.29,0,*72
1500912406.08,37280,22.63,73634.8,7.59,-7.87,-7.73,0,*73
1500912407.33,37281,22.63,73634.0,7.59,-7.57,-7.31,0,*79
1500912408.57,37282,22.63,73636.5,7.59,-7.57,-7.31,0,*7A
1500912409.79,37283,22.63,73628.0,7.59,-7.43,-7.19,0,*74
1500912410.97,37284,22.63,73626.0,7.59,-6.89,-6.69,0,*72
1500912412.19,37285,22.63,73624.0,7.59,-7.27,-7.19,0,*70
1500912413.44,37286,22.63,73634.8,7.55,-5.69,-5.07,0,*7A
1500912414.63,37287,22.63,73634.3,7.55,-4.17,-3.35,0,*74
1500912415.86,37288,22.63,73632.3,7.57,-4.89,-2.79,0,*77
1500912417.13,37289,22.63,73640.3,7.57,-5.69,-4.89,0,*70
1500912418.37,37290,22.63,73634.3,7.57,-5.89,-4.37,0,*73
1500912419.63,37291,22.63,73630.0,7.57,-6.27,-5.77,0,*70
1500912420.88,37292,22.63,73630.5,7.57,-6.01,-5.23,0,*76
1500912422.11,37293,22.63,73630.0,7.57,-4.77,-4.21,0,*77
1500912423.33,37294,22.63,73624.8,7.55,-3.75,-3.63,0,*76
1500912424.6,37295,22.63,73622.8,7.57,-2.55,-1.39,0,*7B
1500912425.81,37296,22.63,73620.3,7.57,-3.95,-2.83,0,*77
1500912427.05,37297,22.63,73622.5,7.57,-2.55,-2.15,0,*74
1500912428.26,37298,22.63,73620.8,7.57,-0.45,-0.11,0,*7E
1500912429.48,37299,22.63,73622.0,7.55,0.75,1.55,0,*4F
1500912430.69,37300,22.63,73624.3,7.57,0.75,2.35,0,*49
1500912431.94,37301,22.63,73624.5,7.57,0.55,2.39,0,*46
1500912433.17,37302,22.63,73624.3,7.57,-3.31,0.41,0,*64
1500912434.39,37303,22.63,73624.0,7.57,-3.35,-1.59,0,*74
1500912435.63,37304,22.63,73630.3,7.57,-2.03,-1.71,0,*7D
1500912436.83,37305,22.63,73626.3,7.57,-0.69,0.09,0,*61
1500912438.07,37306,22.63,73624.5,7.57,0.63,0.51,0,*78
1500912439.32,37307,22.63,73628.3,7.57,1.97,1.47,0,*75
1500912440.56,37308,22.63,73624.5,7.57,1.89,1.89,0,*77
1500912441.79,37309,22.63,73630.5,7.59,2.17,2.25,0,*79
1500912443.01,37310,22.63,73624.5,7.59,1.67,2.05,0,*77
1500912444.22,37311,22.63,73624.8,7.59,0.13,1.43,0,*45
1500912445.43,37312,22.63,73624.5,7.59,-1.91,-0.61,0,*4C
1500912446.64,37313,22.63,73620.8,7.59,-1.99,-1.17,0,*75
1500912447.83,37314,22.63,73626.5,7.59,-2.15,-1.79,0,*7D
1500912449.05,37315,22.63,73624.8,7.61,-2.31,-1.67,0,*7E
1500912450.27,37316,22.63,73622.8,7.59,-3.51,-1.63,0,*75
1500912451.51,37317,22.63,73620.8,7.61,-4.81,-4.05,0,*70
1500912452.73,37318,22.63,73620.0,7.59,-3.79,-2.63,0,*72
1500912453.97,37319,22.63,73622.5,7.59,-3.55,-1.91,0,*73
1500912455.16,37320,22.63,73626.3,7.59,-2.43,-1.67,0,*76
1500912456.37,37321,22.63,73628.0,7.59,-4.05,-3.63,0,*75
1500912457.58,37322,22.63,73622.0,7.59,-5.23,-4.99,0,*71
1500912458.78,37323,22.63,73624.8,7.59,-3.75,-3.79,0,*7C
1500912459.99,37324,22.63,73624.8,7.57,-1.67,-1.17,0,*7E
1500912461.23,37325,22.63,73620.3,7.57,-0.93,-0.41,0,*77
1500912462.44,37326,22.63,73624.3,7.57,-0.19,-0.11,0,*73
1500912463.67,37327,22.63,73624.5,7.57,-1.51,-1.05,0,*7B
1500912464.91,37328,22.63,73630.0,7.57,-2.27,-1.83,0,*78
1500912466.15,37329,22.63,73626.3,7.57,-1.83,-1.71,0,*79
1500912467.36,37330,22.63,73626.3,7.57,-1.59,-1.17,0,*76
1500912468.57,37331,22.63,73626.5,7.57,-2.83,-2.31,0,*74
1500912469.76,37332,22.63,73630.5,7.59,-5.35,-4.33,0,*77
1500912470.95,37333,22.63,73628.5,7.59,-6.35,-6.35,0,*71
1500912472.16,37334,22.63,73634.3,7.59,-6.23,-6.13,0,*75
1500912473.36,37335,22.63,73634.0,7.59,-6.55,-6.55,0,*77
1500912474.57,37336,22.63,73636.8,7.59,-6.55,-6.63,0,*71
1500912475.82,37337,22.63,73636.8,7.61,-6.43,-6.63,0,*7C
1500912477.01,37338,22.63,73638.3,7.59,-6.77,-6.89,0,*7B
1500912478.23,37339,22.63,73634.3,7.61,-6.81,-7.15,0,*7C
1500912479.44,37340,22.63,73634.0,7.59,-7.15,-7.35,0,*77
1500912480.67,37341,22.63,73630.0,7.57,-6.81,-6.81,0,*7A
1500912481.91,37342,22.63,73634.8,7.57,-5.93,-6.47,0,*73
1500912483.13,37343,22.63,73630.8,7.55,-5.03,-6.35,0,*7C
1500912484.35,37344,22.63,73634.5,7.55,-4.13,-4.77,0,*7F
1500912485.59,37345,22.63,73632.3,7.57,-5.51,-5.11,0,*7A
1500912486.86,37346,22.63,73634.0,7.53,-4.77,-5.15,0,*7C
1500912488.08,37347,22.63,73632.8,7.53,-2.31,-3.35,0,*7D
1500912489.26,37348,22.63,73630.5,7.51,-3.31,-3.23,0,*76
1500912490.45,37349,22.63,73630.0,7.51,-2.79,-2.87,0,*75
1500912491.66,37350,22.63,73634.5,7.51,-2.51,-2.27,0,*7D
1500912492.85,37351,22.63,73628.3,7.51,-2.99,-2.35,0,*7B
1500912494.1,37352,22.63,73630.3,7.51,-3.43,-2.51,0,*7C
1500912495.37,37353,22.63,73634.3,7.53,-3.47,-2.63,0,*7A
1500912496.58,37354,22.63,73638.3,7.51,-4.77,-4.17,0,*7E
1500912497.78,37355,22.63,73642.0,7.53,-2.83,-3.23,0,*70
1500912499.0,37356,22.63,73646.0,7.51,-3.23,-2.11,0,*7A
1500912500.23,37357,22.63,73640.8,7.53,-3.83,-2.95,0,*7F
1500912501.49,37358,22.63,73640.5,7.53,-3.75,-2.63,0,*70
1500912502.69,37359,22.63,73642.8,7.51,-4.93,-4.29,0,*74
1500912503.92,37360,22.63,73646.3,7.53,-4.41,-4.37,0,*7C
1500912505.16,37361,22.63,73640.3,7.53,-4.73,-4.53,0,*7E
1500912506.35,37362,22.63,73642.5,7.51,-4.21,-4.17,0,*78
1500912507.54,37363,22.63,73638.3,7.51,-3.87,-4.17,0,*72
1500912508.74,37364,22.63,73636.8,7.51,-3.75,-3.75,0,*7B
1500912509.98,37365,22.63,73632.3,7.53,-4.25,-3.47,0,*7B
1500912511.2,37366,22.63,73636.8,7.51,-5.07,-4.65,0,*7C
1500912512.42,37367,22.63,73630.5,7.53,-5.51,-5.51,0,*7A
1500912513.69,37368,22.63,73626.0,7.53,-4.77,-5.15,0,*70
1500912514.9,37369,22.63,73624.8,7.51,-4.81,-4.57,0,*7D
1500912516.11,37370,22.63,73632.8,7.51,-4.77,-4.05,0,*7B
1500912517.3,37371,22.63,73630.8,7.51,-6.51,-5.97,0,*76
1500912518.52,37372,22.63,73632.3,7.51,-6.81,-6.93,0,*7F
1500912519.74,37373,22.63,73628.8,7.51,-6.77,-7.27,0,*79